Regional Weather Roundup
Issued by NWS

Home | Current Version | Previous Version | Graphics & Text | Print | Product List | Glossary Off
Versions: 1 2 3 4 5 6 7 8 9 10 11 12 13 14 15 16 17 18 19 20 21 22 23 24 25 26 27 28 29 30 31 32 33 34 35 36 37 38 39 40 41 42 43 44 45 46 47 48 49 50

000
ASUS43 KMKX 191200
RWRWI

WISCONSIN REGIONAL WEATHER ROUNDUP
NATIONAL WEATHER SERVICE MILWAUKEE/SULLIVAN WI
700 AM CDT THU OCT 19 2017

NOTE: "FAIR" INDICATES FEW OR NO CLOUDS BELOW 12,000 FEET WITH NO
SIGNIFICANT WEATHER AND/OR OBSTRUCTIONS TO VISIBILITY.

WIZ001-002-006>008-014>016-023>028-191300-
NORTHWEST WISCONSIN

CITY           SKY/WX    TMP DP  RH WIND       PRES   REMARKS
SUPERIOR ARPT  CLOUDY    43  28  54 SW9       29.97R
ASHLAND        CLEAR     43  26  51 SW10      29.97R
6HR MIN TEMP:  42; 6HR MAX TEMP:  49;

HAYWARD        PTCLDY    36  28  73 S5        30.02R WCI  32
6HR MIN TEMP:  35; 6HR MAX TEMP:  50;

SIREN          PTCLDY    41  29  63 CALM      30.02S
CUMBERLAND     CLOUDY    36  30  80 CALM      30.03S
RICE LAKE      CLOUDY    35  32  88 CALM      30.05S
CHETEK         CLOUDY    36  31  83 SE3       30.04S
LADYSMITH      PTCLDY    38  29  71 S5        30.05R WCI  34
EAU CLAIRE     NOT AVBL
MENOMONIE      CLOUDY    38  34  82 CALM      30.05S
NEW RICHMOND   CLOUDY    40  31  70 S5        30.04S
OSCEOLA        PTCLDY    36  32  87 CALM      30.06S
$$

WIZ003>005-009-010-017-018-191300-
NORTH CENTRAL WISCONSIN

CITY           SKY/WX    TMP DP  RH WIND       PRES   REMARKS
MANITOWISH WTR CLOUDY    41  25  52 SW8       29.97R
ARBOR VITAE    CLOUDY    43  26  50 W6        29.98R
WOODRUFF       CLOUDY    43  26  50 W6        29.98R
RHINELANDER    CLOUDY    37  25  61 W8        30.00R WCI  31
6HR MIN TEMP:  36; 6HR MAX TEMP:  50;

EAGLE RIVER    CLOUDY    43  23  45 W8        29.96R
LAND O LAKES   PTCLDY    45  22  39 W6        29.97R
PHILLIPS       CLOUDY    41  25  53 SW5       30.01R
TOMAHAWK       CLOUDY    38  25  58 CALM      30.02R
MEDFORD        CLOUDY    40  27  59 SW5       30.04R
MERRILL        CLOUDY    35  28  73 W3        30.03R
$$

WIZ029-030-035-036-043>047-191300-
CENTRAL WISCONSIN

CITY           SKY/WX    TMP DP  RH WIND       PRES   REMARKS
WAUSAU         CLOUDY    43  29  57 NW5       30.03R
6HR MIN TEMP:  43; 6HR MAX TEMP:  51;

MOSINEE        PTCLDY    43  28  56 W6        30.06R
MARSHFIELD     CLOUDY    42  27  55 W7        30.05R
6HR MIN TEMP:  41; 6HR MAX TEMP:  49;

STEVENS POINT  PTCLDY    44  27  50 W7        30.06R
WAUPACA        CLOUDY    47  29  48 W5        30.06R
WAUTOMA        NOT AVBL
WISC RAPIDS    CLOUDY    43  28  55 W5        30.08R
6HR MIN TEMP:  42; 6HR MAX TEMP:  54;

CAMP DOUGLAS   NOT AVBL
$$

WIZ011>013-019>022-031-037>040-048>050-191300-
NORTHEAST WISCONSIN

CITY           SKY/WX    TMP DP  RH WIND       PRES   REMARKS
ANTIGO         CLOUDY    38  27  64 W5        30.02R WCI  35
SHAWANO        PTCLDY    47  28  47 SW5       30.03R
OCONTO         CLOUDY    44  28  53 SW5       30.01S
STURGEON BAY   PTCLDY    50  30  46 W6        30.02R
6HR MIN TEMP:  49; 6HR MAX TEMP:  60;

GREEN BAY      CLOUDY    47  31  53 SW6       30.05R
6HR MIN TEMP:  47; 6HR MAX TEMP:  58;

MANITOWOC      PTCLDY    49  31  49 W8        30.05R
6HR MIN TEMP:  49; 6HR MAX TEMP:  63;

APPLETON       MOCLDY    45  27  49 W7        30.05R
CLINTONVILLE   CLOUDY    45  27  49 W6        30.04R
OSHKOSH        PTCLDY    47  29  49 W5        30.06R
6HR MIN TEMP:  47; 6HR MAX TEMP:  58;

$$

WIZ032>034-041-042-053>061-191300-
SOUTHWEST WISCONSIN

CITY           SKY/WX    TMP DP  RH WIND       PRES   REMARKS
LA CROSSE      CLOUDY    46  38  73 S5        30.09R
6HR MIN TEMP:  43; 6HR MAX TEMP:  55;

SPARTA         CLOUDY    34  32  92 CALM      30.09R
VIROQUA        CLOUDY    46  30  54 SW5       30.09S
BOSCOBEL       CLOUDY    38  36  92 CALM      30.12R
6HR MIN TEMP:  38; 6HR MAX TEMP:  52;

PRAIRIE DU CHI CLOUDY    41  34  76 CALM      30.11R
PLATTEVILLE    CLOUDY    47  38  69 CALM      30.12R
$$

WIZ056-057-062-063-064-067-068-191300-
SOUTH CENTRAL WISCONSIN

CITY           SKY/WX    TMP DP  RH WIND       PRES   REMARKS
REEDSBURG      CLOUDY    41  35  79 CALM      30.09S
BARABOO/DELLS  CLOUDY    42  32  66 CALM      30.09R
LONE ROCK      NOT AVBL
MINERAL POINT  PTCLDY    48  32  53 CALM      30.11R
MADISON        CLOUDY    43  36  76 CALM      30.10R
6HR MIN TEMP:  43; 6HR MAX TEMP:  59;

MIDDLETON      CLOUDY    42  37  83 CALM      30.10R
WATERTOWN      CLOUDY    42  39  89 CALM      30.09R
MONROE         CLOUDY    52  30  43 N6        30.11R
JANESVILLE     CLEAR     43  43 100 CALM      30.10R
$$

WIZ051-052-058>065-066-070>072-191300-
SOUTHEAST WISCONSIN

CITY           SKY/WX    TMP DP  RH WIND       PRES   REMARKS
MILWAUKEE      CLOUDY    55  27  34 W3        30.09R
6HR MIN TEMP:  54; 6HR MAX TEMP:  62;

WAUKESHA       CLEAR     48  30  49 W9        30.10R
MILWAUKEE/TIMM CLOUDY    50  23  34 W3        30.08R
RACINE         PTCLDY    49  39  68 W6        30.10R
6HR MIN TEMP:  49; 6HR MAX TEMP:  61;

BURLINGTON     CLOUDY    43  39  84 CALM      30.09R
KENOSHA        CLOUDY    46  40  79 W3        30.10R
6HR MIN TEMP:  46; 6HR MAX TEMP:  60;

FOND DU LAC    PTCLDY    47  28  47 SW6       30.08R
6HR MIN TEMP:  47; 6HR MAX TEMP:  57;

SHEBOYGAN      PTCLDY    47  33  58 W6        30.07R
6HR MIN TEMP:  47; 6HR MAX TEMP:  62;

WEST BEND      CLOUDY    50  27  40 W6        30.07R
JUNEAU         CLOUDY    45  31  58 CALM      30.09R
$$

LSZ147-162-191300-
LAKE SUPERIOR

STATION/POSITION TIME  TEMP    WIND        PRES    WAVE
                       AIR SEA DIR/SP/G            HT/PER
                 (UTC) (F)     (DEG/KT/KT) (MB)    (FT/S)
W MID LAKE BUOY  1050   53 52              1010.6R   7/ 6
DEVILS ISLAND    1100   53     250/ 28/ 34 1012.5R
SAXON HARBOR     1140   50     210/  8/ 13 1013.9R
$$

LMZ867-665-643>646-191300-
LAKE MICHIGAN

STATION/POSITION TIME  TEMP    WIND        PRES    WAVE
                       AIR SEA DIR/SP/G            HT/PER
                 (UTC) (F)     (DEG/KT/KT) (MB)    (FT/S)
S GREEN BAY BUOY 1130   54 58  240/ 16/ 19 1015.9R
N MID LAKE BUOY  1050   57 58  260/ 17/ 21 1014.3R   5/ 7
NORTHPORT PIER   1140   55     280/  6/ 10 1014.9R
SHEBOYGAN LAKESH 1100   54     290/ 11/ 15 1017.2R
PORT WASHINGTON  1130   53     270/  2/  5 1019.0R
MILWAUKEE LAKESH 1130   55     300/  4/  5   N/A
S MID LAKE BUOY  1050   59 61  310/ 14/ 16 1017.5R   3/ 5
KENOSHA   LAKESH 1100   55     280/  7/  9 1018.3
$$

TC  - TEMPERATURE IN CELSIUS
VSB - VISIBILITY IN STATUTE MILES
WCI - WIND CHILL INDEX
HX  - HEAT INDEX





USA.gov is the U.S. government's official web portal to all federal, state and local government web resources and services.